Wind_Speed
50 49 48 49 53 56 59 62 65 66 67 72 72 69 63 59 59 67 69 71 71 52 58 63 60 60 59 56 43 47 47 46 45 44 46 49 51 52 53 53 52 49 46 50
46 46 51 55 57 60 64 67 69 71 71 71 75 78 77 57 59 58 60 62 59 56 56 57 64 60 62 59 43 48 47 45 46 45 46 48 50 50 51 52 52 52 51 50
50 52 56 58 60 64 66 70 71 71 71 77 71 75 74 66 55 51 59 60 51 49 51 53 64 60 56 50 45 50 47 46 45 46 46 46 48 49 50 51 52 52 52 51
57 56 56 56 59 53 62 54 48 48 57 59 53 63 46 45 40 33 33 39 44 50 54 53 52 49 42 41 49 50 50 47 46 46 47 47 47 48 48 48 49 50 52 51
54 56 56 58 54 49 52 45 45 42 41 42 42 52 44 40 40 36 48 43 45 55 53 50 41 35 31 39 45 44 45 45 45 46 46 47 48 48 48 48 49 50 52 52
52 48 49 45 41 42 41 41 39 43 43 47 40 43 34 30 33 42 41 43 41 49 53 50 41 33 35 38 41 42 43 45 46 47 46 46 47 47 48 49 50 51 52 52
43 40 36 35 37 38 36 36 37 39 44 41 36 39 29 30 29 33 43 44 43 43 54 54 53 37 42 40 41 43 45 45 46 46 46 46 47 48 48 50 51 51 51 53
35 32 28 27 30 28 30 35 36 34 31 24 21 25 33 32 33 27 43 39 46 50 47 50 54 42 39 40 42 44 45 45 46 46 46 46 47 47 48 49 50 51 52 53
29 30 31 26 25 30 31 32 31 31 27 25 22 21 30 32 25 27 24 30 36 42 49 46 45 38 38 39 43 47 46 44 43 42 42 44 44 45 46 48 50 52 54 56
28 29 28 26 27 30 33 32 34 31 28 26 26 18 30 26 24 22 36 27 25 30 27 33 38 43 50 51 51 48 45 44 43 43 43 44 45 48 50 53 55 58 60 62
29 31 29 26 28 29 32 33 33 32 31 31 33 28 27 37 40 33 32 29 29 30 42 44 45 46 44 46 40 39 41 43 44 45 46 48 50 53 56 57 59 62 64 66
36 37 35 31 36 33 32 34 33 32 34 33 34 31 31 39 44 50 53 44 35 44 39 33 39 43 39 36 38 39 42 43 45 47 49 51 53 55 57 60 61 62 54 49
34 38 37 37 40 34 35 33 33 36 37 36 36 37 32 38 44 48 47 54 48 39 31 41 46 41 39 40 40 40 42 45 49 52 55 57 61 61 57 53 49 42 37 37
40 38 39 44 40 33 36 34 35 37 38 32 33 31 34 39 38 42 50 50 45 42 34 38 39 42 44 44 43 44 48 51 53 55 55 51 46 43 39 38 37 36 31 38
38 40 45 46 34 33 37 38 36 34 35 39 34 33 24 35 46 47 44 38 34 36 38 39 40 41 42 44 46 49 51 51 40 28 25 24 24 23 28 25 21 26 35 29
40 44 44 32 23 28 36 32 34 36 38 40 31 28 31 36 41 39 33 36 40 43 44 45 45 45 46 47 48 45 30 20 17 17 14 15 14 20 19 30 35 31 27 29
44 42 34 28 31 30 33 30 33 33 33 34 36 37 36 41 41 39 40 41 45 45 48 49 48 46 41 33 20 14 14 16 16 12 14 13 6 5 11 15 17 21 22 20
40 31 28 24 25 30 30 31 29 29 34 39 43 43 45 45 44 43 46 44 45 46 45 44 41 29 18 14 13 11 14 13 9 8 11 15 10 8 11 18 13 12 14 17
30 27 25 27 26 25 29 31 33 35 40 42 39 43 43 43 42 40 36 28 29 33 30 22 13 10 9 10 8 8 5 2 6 6 6 5 2 5 9 9 11 6 7 17
24 22 22 24 28 34 30 33 31 29 23 18 20 22 20 20 21 20 19 18 15 11 8 8 7 7 8 7 6 4 7 8 7 8 11 9 7 4 3 5 2 4 4 2
19 22 26 31 33 30 20 16 15 19 19 18 21 22 19 17 17 16 15 11 8 9 7 7 7 7 8 7 10 14 13 13 15 17 17 17 16 14 14 10 8 6 4 4
25 24 23 22 18 10 10 14 17 18 18 18 18 19 19 17 11 11 12 9 10 9 8 8 10 10 9 12 11 12 14 13 12 15 17 17 15 16 17 18 20 16 12 8
19 18 17 15 9 10 13 13 14 14 16 17 15 15 15 15 14 12 7 9 10 10 10 10 9 7 11 13 12 12 13 12 13 14 16 16 16 17 16 17 17 16 17 18
15 13 8 8 11 13 13 11 12 13 14 10 8 4 5 5 9 8 10 10 12 11 11 12 10 13 13 12 11 12 12 13 13 15 15 16 17 19 19 20 20 20 19 17
12 10 8 14 15 14 12 10 11 12 7 6 4 1 7 7 11 9 10 12 14 14 15 14 13 12 12 12 12 13 13 13 14 15 16 18 19 21 22 23 24 23 22 20
9 9 9 10 8 8 9 9 8 7 2 4 4 5 9 11 11 13 15 16 15 16 14 12 12 11 9 7 7 9 10 11 13 16 19 22 23 24 26 28 28 28 26 24
Wind_Direction
279 277 277 278 279 281 282 284 286 287 283 278 278 276 277 272 269 272 273 272 273 273 277 269 268 268 266 263 267 261 263 262 260 257 258 259 257 258 260 261 261 262 262 256
271 278 277 277 280 282 282 283 284 282 278 278 277 275 274 264 261 261 265 266 281 283 275 273 272 264 264 265 268 261 260 259 260 258 257 258 259 258 257 258 260 261 260 260
279 278 280 283 285 285 287 287 285 285 281 276 279 277 277 281 278 265 266 270 269 256 256 262 274 274 275 274 264 265 263 260 261 261 257 256 256 257 257 256 256 258 258 259
281 282 283 282 282 284 281 282 281 277 280 287 289 289 286 290 285 274 279 255 256 241 243 257 278 277 273 263 260 263 264 265 263 260 261 259 258 258 257 256 256 256 256 255
286 282 282 280 283 282 283 286 285 286 280 278 280 283 296 285 276 269 248 242 254 244 245 249 273 271 252 252 256 258 261 262 261 259 257 257 257 258 258 258 258 257 257 257
281 280 281 284 282 282 285 283 281 278 286 284 291 289 289 296 264 268 268 258 259 255 244 249 260 265 262 256 259 259 257 258 259 259 259 259 258 258 258 259 259 259 259 258
282 279 278 284 280 282 283 280 283 283 282 284 287 283 294 281 259 255 256 257 256 254 245 246 249 263 270 263 260 258 257 257 258 259 261 261 260 259 258 258 257 257 259 261
281 283 287 285 284 278 273 273 278 286 286 282 291 289 283 285 260 252 237 247 254 253 255 245 243 246 246 253 258 261 262 262 261 261 261 262 262 261 260 259 259 259 259 258
273 279 280 275 274 280 282 276 281 280 278 279 280 283 277 262 250 244 220 252 252 252 252 241 238 247 249 262 270 269 269 268 266 264 261 260 261 261 261 261 261 261 261 260
276 279 291 278 282 281 271 272 272 275 281 276 285 274 273 269 284 264 262 274 268 233 243 242 255 261 270 276 277 270 266 265 265 266 266 266 265 264 264 264 264 264 263 261
281 281 288 279 296 278 266 265 268 271 265 266 283 263 256 266 268 266 271 277 270 260 260 260 266 275 276 275 265 268 269 267 266 265 264 265 265 266 266 267 267 267 266 265
282 275 287 286 288 280 271 269 268 260 271 273 273 269 268 263 267 269 266 259 253 258 273 269 271 270 271 277 276 273 270 270 270 269 269 270 271 270 270 271 271 273 273 265
278 277 283 288 285 278 269 265 266 270 271 274 279 282 276 267 258 262 266 257 259 268 272 268 270 277 278 275 274 275 276 277 277 276 276 276 274 272 272 272 272 269 271 272
268 276 282 287 283 272 270 267 261 263 267 277 276 285 268 265 260 260 261 263 266 270 262 260 267 271 274 276 281 283 286 288 287 284 281 278 274 270 266 262 261 273 265 262
269 274 282 287 271 264 263 258 266 269 270 276 284 269 264 252 254 253 260 273 282 277 270 273 275 278 285 290 292 293 296 292 287 283 286 285 280 274 257 264 260 267 254 255
277 280 286 280 258 258 265 267 269 273 278 279 274 273 256 256 263 274 279 283 281 278 283 285 289 292 295 295 293 294 290 290 285 279 266 277 267 289 276 261 271 274 269 263
278 286 277 260 255 260 269 275 273 273 275 273 265 265 267 271 273 275 275 272 274 279 281 284 287 289 288 284 279 272 290 292 290 273 276 285 266 295 294 289 286 282 272 252
281 276 264 264 257 263 273 270 267 268 268 268 270 270 270 269 267 266 267 272 275 276 280 282 281 275 261 248 247 273 290 286 293 248 251 268 304 292 283 290 305 299 271 241
277 265 266 268 267 268 270 278 281 276 271 272 275 270 269 269 270 269 272 267 271 277 275 264 241 216 233 231 252 263 276 321 8 316 257 248 71 316 284 321 303 287 257 242
265 255 261 268 272 274 281 279 282 278 282 275 272 279 277 266 266 256 263 274 271 258 189 166 200 220 220 223 217 196 106 64 64 84 85 77 64 20 312 292 262 272 333 282
258 259 265 268 272 279 280 275 275 281 278 276 277 272 274 264 261 255 253 285 238 197 188 189 180 194 192 164 155 135 101 73 55 57 59 54 35 29 33 50 52 52 18 19
260 264 262 264 272 281 285 290 294 287 277 271 280 277 267 266 248 239 268 241 234 188 171 169 174 158 140 156 126 108 102 84 74 68 68 62 55 47 39 29 21 18 24 44
254 257 265 258 259 288 306 304 297 293 282 283 280 278 267 251 248 234 222 185 186 173 171 163 132 126 146 114 114 113 101 90 74 65 54 43 34 32 30 25 22 15 7 7
254 263 248 264 281 290 296 303 294 292 294 274 275 302 242 209 184 186 174 173 158 149 139 112 119 124 119 123 115 99 84 71 58 48 42 35 28 20 9 359 358 355 350 342
252 235 261 281 280 276 261 282 301 302 287 271 237 189 147 149 148 175 172 149 138 132 118 119 128 123 120 114 97 84 71 60 47 34 21 13 3 355 352 357 355 347 338 329
232 241 276 285 267 242 253 276 288 310 268 222 226 171 172 167 167 157 143 134 130 122 122 130 123 128 126 113 84 63 44 24 13 2 354 350 347 345 340 339 338 338 334 325
Height
5728 5729 5729 5728 5724 5722 5721 5718 5718 5724 5724 5707 5712 5713 5712 5713 5711 5709 5709 5709 5711 5703 5703 5705 5715 5720 5723 5725 5727 5724 5725 5726 5726 5726 5726 5728 5731 5733 5734 5734 5736 5740 5742 5740
5716 5719 5714 5711 5711 5707 5703 5701 5702 5701 5703 5693 5692 5691 5696 5701 5699 5698 5696 5696 5700 5686 5683 5684 5701 5704 5706 5710 5712 5712 5712 5713 5715 5716 5716 5716 5718 5722 5723 5724 5725 5726 5729 5732
5701 5702 5695 5695 5695 5688 5687 5682 5680 5678 5677 5680 5674 5674 5683 5682 5684 5692 5692 5692 5688 5674 5669 5671 5685 5692 5694 5699 5696 5698 5699 5700 5703 5704 5704 5705 5706 5707 5710 5712 5713 5714 5717 5720
5688 5686 5681 5679 5679 5675 5671 5672 5665 5663 5660 5662 5668 5652 5664 5669 5670 5673 5673 5667 5666 5657 5656 5663 5673 5678 5682 5683 5681 5683 5685 5687 5689 5690 5692 5692 5693 5695 5696 5698 5700 5701 5703 5706
5684 5671 5668 5664 5668 5664 5660 5659 5655 5655 5653 5651 5660 5648 5653 5655 5657 5657 5648 5648 5647 5645 5650 5655 5659 5662 5665 5667 5668 5669 5671 5672 5674 5676 5678 5679 5680 5681 5682 5683 5685 5687 5689 5692
5662 5660 5654 5655 5654 5654 5653 5649 5650 5650 5646 5644 5651 5643 5647 5645 5644 5640 5640 5640 5639 5639 5643 5649 5650 5653 5654 5655 5657 5658 5658 5659 5660 5663 5664 5666 5667 5668 5670 5670 5671 5673 5675 5678
5645 5649 5649 5646 5644 5646 5644 5642 5641 5641 5638 5638 5638 5636 5638 5633 5629 5629 5628 5631 5631 5631 5634 5636 5639 5644 5646 5645 5645 5645 5646 5646 5648 5650 5651 5652 5654 5655 5656 5657 5658 5660 5661 5663
5636 5639 5639 5639 5638 5637 5637 5636 5634 5632 5630 5630 5630 5629 5625 5623 5620 5621 5613 5619 5623 5625 5628 5629 5632 5634 5634 5635 5635 5634 5634 5635 5636 5637 5639 5639 5640 5641 5642 5643 5644 5646 5647 5648
5629 5632 5632 5633 5632 5631 5631 5628 5627 5625 5626 5624 5626 5625 5618 5616 5613 5616 5609 5612 5610 5613 5614 5617 5622 5625 5625 5626 5626 5625 5624 5624 5624 5625 5626 5626 5627 5628 5629 5629 5630 5630 5631 5631
5623 5623 5626 5626 5627 5624 5622 5621 5619 5619 5619 5617 5617 5618 5610 5613 5611 5610 5609 5604 5605 5605 5609 5614 5618 5619 5618 5616 5616 5615 5614 5614 5613 5613 5614 5614 5615 5615 5614 5614 5614 5614 5614 5613
5617 5619 5621 5620 5619 5616 5613 5613 5612 5613 5612 5611 5610 5612 5610 5604 5604 5604 5600 5600 5605 5607 5606 5606 5607 5607 5605 5605 5605 5605 5604 5603 5603 5602 5602 5601 5601 5599 5598 5599 5598 5596 5595 5593
5610 5610 5610 5611 5609 5607 5605 5604 5604 5603 5606 5603 5601 5601 5603 5602 5598 5594 5592 5597 5600 5598 5600 5600 5599 5597 5597 5597 5596 5595 5594 5592 5591 5589 5588 5586 5584 5582 5581 5581 5579 5577 5575 5573
5602 5601 5601 5600 5599 5598 5595 5595 5596 5595 5594 5593 5595 5593 5595 5592 5592 5589 5587 5584 5587 5595 5596 5592 5589 5589 5589 5588 5586 5584 5581 5580 5578 5575 5573 5570 5566 5564 5563 5562 5561 5561 5560 5559
5594 5593 5593 5591 5588 5587 5585 5585 5587 5586 5584 5587 5585 5585 5586 5582 5579 5577 5573 5574 5581 5586 5584 5583 5583 5581 5579 5577 5575 5572 5569 5567 5563 5559 5555 5551 5548 5546 5546 5548 5549 5549 5548 5548
5583 5583 5583 5580 5579 5577 5576 5576 5578 5577 5578 5576 5578 5575 5578 5570 5565 5565 5569 5573 5572 5570 5570 5571 5571 5570 5567 5565 5562 5559 5556 5553 5547 5544 5542 5540 5538 5537 5537 5539 5541 5539 5537 5538
5574 5574 5571 5569 5569 5568 5565 5570 5570 5569 5570 5567 5566 5568 5564 5563 5559 5561 5564 5562 5560 5558 5558 5557 5557 5556 5554 5553 5552 5550 5545 5542 5541 5538 5536 5535 5534 5532 5532 5534 5535 5533 5531 5531
5565 5564 5561 5561 5561 5561 5560 5561 5561 5562 5560 5558 5557 5558 5559 5557 5556 5555 5553 5552 5550 5549 5547 5547 5546 5546 5545 5544 5542 5542 5540 5538 5535 5533 5532 5531 5529 5529 5529 5529 5528 5527 5525 5525
5556 5554 5552 5553 5554 5553 5554 5552 5554 5555 5552 5550 5546 5547 5546 5546 5546 5545 5542 5542 5541 5539 5537 5536 5535 5535 5536 5537 5538 5538 5537 5534 5531 5529 5528 5527 5526 5526 5527 5526 5525 5522 5520 5521
5547 5545 5546 5546 5546 5548 5544 5546 5546 5544 5540 5538 5538 5534 5532 5531 5531 5531 5531 5531 5531 5529 5527 5525 5527 5530 5532 5533 5534 5535 5534 5531 5528 5526 5524 5523 5524 5524 5523 5522 5521 5520 5518 5519
5539 5540 5541 5540 5540 5537 5541 5537 5534 5531 5531 5529 5526 5524 5524 5522 5522 5522 5523 5524 5523 5522 5522 5523 5525 5528 5529 5530 5532 5532 5530 5529 5528 5525 5522 5521 5521 5521 5520 5519 5518 5518 5517 5516
5534 5535 5536 5534 5532 5532 5531 5529 5528 5527 5528 5524 5521 5519 5518 5518 5519 5519 5519 5520 5520 5520 5521 5523 5524 5526 5527 5528 5530 5530 5527 5527 5527 5525 5521 5521 5521 5520 5519 5517 5516 5515 5515 5514
5529 5529 5529 5529 5528 5528 5527 5525 5523 5521 5519 5517 5517 5514 5514 5513 5514 5515 5516 5517 5518 5520 5521 5522 5524 5525 5526 5529 5528 5527 5527 5528 5528 5526 5524 5524 5524 5522 5520 5519 5517 5515 5514 5513
5525 5524 5524 5525 5524 5523 5521 5520 5518 5516 5515 5513 5512 5510 5509 5509 5510 5512 5513 5515 5518 5519 5521 5523 5524 5526 5528 5527 5528 5528 5528 5529 5528 5527 5526 5526 5525 5523 5522 5521 5520 5518 5517 5515
5519 5519 5519 5520 5520 5519 5518 5517 5516 5514 5512 5510 5509 5508 5507 5508 5510 5512 5514 5516 5518 5519 5521 5522 5525 5527 5527 5528 5529 5529 5529 5528 5528 5527 5527 5526 5525 5524 5522 5521 5519 5518 5517 5516
5516 5516 5517 5516 5516 5516 5516 5515 5514 5512 5510 5509 5509 5508 5509 5510 5511 5514 5515 5517 5519 5521 5522 5525 5526 5527 5529 5531 5531 5530 5529 5529 5528 5527 5526 5525 5524 5523 5522 5520 5519 5517 5515 5514
5513 5513 5514 5513 5512 5513 5513 5513 5513 5512 5510 5509 5509 5509 5510 5512 5513 5515 5517 5519 5521 5522 5524 5526 5527 5529 5531 5531 5531 5529 5528 5528 5527 5526 5525 5524 5523 5520 5519 5517 5515 5514 5512 5510